Grigor Bayramyan

チーフスカウト - Ararat
19 11月 2028
日曜日
処理

性格

適応力 (8) 野心 (11) 物議 (15) 忠誠心 (8) プレッシャー耐性 (11) プロ意識 (13) スポーツマンシップ (2) 気質 (1)

プロフィール

指導スタイル 民主型
ライセンス 大陸B級
決断力 5
人材管理 6
モチベーション 10
規律 8
仕事満足度
100%
疲労度
0%
役職 チーフスカウト
給与 32.3K 週給
契約 14.03.2030

パフォーマンス

態度 良い
トレーニング効果
44%
選手育成
15%
怪我予防
30%
戦術実行
45%

最近の出来事

補強会議に出席 7日前
補強会議に出席 14日前
補強会議に出席 21日前
補強会議に出席 28日前
補強会議に出席 35日前
補強会議に出席 42日前
補強会議に出席 49日前
補強会議に出席 56日前

監視中

119
選手 クラブ 状態 能力 自信 視察済み 最終確認 最新投票
Alejandro Rincon Llaneros アクティブ 112 / 101 40% 3 29.12.2027 -
Lucas Cano All Boys アクティブ 103 / 98 40% 4 28.12.2027 -
Santiago Rodríguez Gimnasia y Esgrima アクティブ 111 / 118 40% 3 28.12.2027 -
Rodrigo Pollero Deportivo Tachira アクティブ 107 / 119 40% 3 26.12.2027 -
Lisandro Cabrera Maipú アクティブ 120 / 102 40% 2 26.12.2027 -
Dato Mchedlidze Tskhinvali アクティブ 90 / 101 40% 1 25.12.2027 -
Tobías Cervera Gimnasia y Esgrima アクティブ 102 / 113 40% 1 25.12.2027 -
Daniel Barrea Godoy Cruz アクティブ 116 / 135 40% 4 24.12.2027 -
Santiago Sala Güemes アクティブ 124 / 105 40% 3 24.12.2027 -
Octavio Bianchi Gimnasia y Esgrima アクティブ 121 / 119 40% 1 23.12.2027 -
Agustín Gallo Tristán Suárez アクティブ 120 / 110 40% 3 17.12.2027 -
Sagir Arce Saburtalo アクティブ 94 / 109 40% 4 11.12.2027 -
Gianluca Pugliese Güemes アクティブ 119 / 105 40% 4 11.12.2027 -
Sebastián Marfort Racing アクティブ 89 / 114 40% 1 06.12.2027 -
Lautaro Gordillo Colegiales アクティブ 115 / 123 40% 3 05.12.2027 -
Renzo Reynaga Patronato アクティブ 109 / 98 40% 2 05.12.2027 -
Ronaldo Peña Deportivo Lara アクティブ 112 / 93 40% 4 03.12.2027 -
Franco Ayunta Temperley アクティブ 117 / 111 40% 4 03.12.2027 -
José Balza Deportivo Tachira アクティブ 105 / 106 40% 2 02.12.2027 -
Jeriel De Santis Caracas アクティブ 104 / 114 40% 2 01.12.2027 -
Elías Peralta Lokomotivi アクティブ 100 / 94 40% 1 01.12.2027 -
Jhonatan Candia Barracas Central アクティブ 111 / 110 40% 2 30.11.2027 -
Genaro Rossi San Martín SJ アクティブ 115 / 105 40% 2 30.11.2027 -
Juan David Rueda Alianza Petrolera アクティブ 129 / 99 40% 2 27.11.2027 -
Rafael Moreno Atletico Venezuela アクティブ 123 / 128 40% 2 26.11.2027 -
Rodrigo Mosqueira Stjarnan アクティブ 112 / 102 40% 2 26.11.2027 -
Richard Figueroa Deportivo Lara アクティブ 127 / 93 40% 1 25.11.2027 -
Álex Arce Independiente Rivadavia アクティブ 125 / 139 40% 1 23.11.2027 -
Mauricio Márquez Caracas アクティブ 120 / 101 40% 7 20.11.2027 -
Ronny Maza Aragua アクティブ 113 / 103 40% 1 20.11.2027 -
José Barreto Quilmes アクティブ 135 / 118 40% 2 19.11.2027 -
Lorenzo Barrera Agropecuario Argentino アクティブ 86 / 94 40% 2 19.11.2027 -
Sergio González Racing アクティブ 134 / 110 40% 2 17.11.2027 -
Favio Cabral Mitre アクティブ 111 / 108 40% 1 17.11.2027 -
Agustín Lavezzi Quilmes アクティブ 90 / 103 40% 1 15.11.2027 -
Salomon Ramirez Atletico Venezuela アクティブ 92 / 107 40% 1 12.11.2027 -
Gustavo Viera Cerro Largo アクティブ 97 / 115 40% 1 06.11.2027 -
Enzo González Defensores アクティブ 99 / 111 40% 2 05.11.2027 -
Sebastián Cocimano Nueva Chicago アクティブ 104 / 117 40% 3 05.11.2027 -
Tornike Mikautadze Tskhinvali アクティブ 112 / 105 40% 1 28.10.2027 -
Matías Samaniego Talleres アクティブ 102 / 85 40% 2 27.10.2027 -
César Magallan Estudiantes de Merida アクティブ 114 / 120 40% 4 22.10.2027 -
Kekuta Manneh Samtredia アクティブ 104 / 83 40% 1 22.10.2027 -
Nicolás Heiz Maipú アクティブ 103 / 96 40% 2 21.10.2027 -
Rafael Arace Caracas アクティブ 127 / 118 40% 2 07.10.2027 -
Alan Bonansea Colón アクティブ 94 / 102 40% 2 06.10.2027 -
Junior Paredes Trujillanos アクティブ 95 / 93 40% 1 06.10.2027 -
Juan Mendoza Güemes アクティブ 86 / 115 40% 1 24.09.2027 -
Adalberto Peñaranda Deportivo Tachira アクティブ 139 / 99 40% 2 17.09.2027 -
Rodrigo Bogarín Barracas Central アクティブ 129 / 125 40% 1 11.09.2027 -
Camilo Machado Madryn アクティブ 115 / 101 40% 1 08.09.2027 -
Tomás Bolzicco Chaco For Ever アクティブ 81 / 112 40% 1 08.09.2027 -
Rui Costa Port Vale アクティブ 104 / 122 40% 1 09.08.2027 -
Lorenzo De Leo Renate アクティブ 92 / 90 40% 1 26.07.2027 -
Giuseppe Panico Foggia アクティブ 140 / 111 40% 2 19.07.2027 -
Augusto Berrondo Tristán Suárez アクティブ 125 / 97 40% 1 19.07.2027 -
Andrew Dallas Sambenedettese アクティブ 83 / 103 40% 1 12.07.2027 -
Patrick Schmidt Tarxien Rainbows アクティブ 88 / 102 40% 3 22.06.2027 -
Ruslan Apekov Torpedo Moscow アクティブ 87 / 104 40% 1 01.06.2027 -
Mikhail Ignatov Sochi アクティブ 136 / 123 40% 1 29.05.2027 -
Thom van Bergen Groningen アクティブ 108 / 119 40% 1 28.05.2027 -
Damir Céter Hamrun Spartans アクティブ 105 / 115 40% 2 26.05.2027 -
Martin Sekulić Ural アクティブ 132 / 102 40% 2 24.05.2027 -
Mômô Fanyé Touré Alashkert アクティブ 117 / 119 40% 3 22.05.2027 -
Törles Knöll Al-Ta'ee アクティブ 108 / 117 40% 1 22.05.2027 -
Jonathan Cañete Portuguesa アクティブ 137 / 105 40% 1 20.05.2027 -
Yakou Meïté Damac アクティブ 119 / 109 40% 3 17.05.2027 -
Vladislav Sarveli Nizhniy Novgorod アクティブ 129 / 117 40% 2 15.05.2027 -
Kamran Aliev SKA Khabarovsk アクティブ 102 / 96 40% 3 11.05.2027 -
Robert Murić Floriana アクティブ 88 / 86 40% 1 02.05.2027 -
Prince Ibara Al-Njoom アクティブ 101 / 105 40% 1 02.05.2027 -
David Davidyan Rotor アクティブ 81 / 116 40% 1 01.05.2027 -
Ekain Orobengoa Real Sociedad アクティブ 81 / 100 40% 1 30.04.2027 -
Matheus Aiás Noah アクティブ 105 / 125 40% 2 27.04.2027 -
Georgy Gongadze Ufa アクティブ 76 / 113 40% 1 23.04.2027 -
Yeangel Montero Naxxar Lions アクティブ 100 / 93 40% 2 17.04.2027 -
Moussakoye Diallo Stade Malien アクティブ 123 / 104 40% 1 17.04.2027 -
Alexandr Saplinov Volga アクティブ 93 / 99 40% 2 16.04.2027 -
Georgy Melkadze Akhmat Grozny アクティブ 119 / 103 40% 1 15.04.2027 -
Leandro Antunes Al-Riyadh アクティブ 123 / 115 40% 1 08.04.2027 -
Carlos Guerreño Hajer アクティブ 84 / 103 40% 3 07.04.2027 -
Indrit Tuci Olimpija Ljubljana アクティブ 87 / 107 40% 1 07.04.2027 -
Renat Garayev AZAL アクティブ 121 / 100 40% 3 06.04.2027 -
Artem Poliarus Urartu アクティブ 108 / 111 41% 1 25.01.2027 -
Kauan Floriana アクティブ 106 / 106 40% 1 03.01.2027 -
Yilson Mosquera Tarxien Rainbows アクティブ 97 / 93 40% 1 02.01.2027 -
Vyacheslav Grulev Nizhniy Novgorod アクティブ 89 / 125 40% 2 31.12.2026 -
Khetag Khosonov Akron アクティブ 112 / 110 40% 1 31.12.2026 -
François Kamano Sochi アクティブ 99 / 129 40% 1 21.12.2026 -
Karim El Berkaoui Al-Khaleej アクティブ 111 / 134 40% 2 19.12.2026 -
Alexey Kashtanov Torpedo Moscow アクティブ 113 / 119 40% 1 17.12.2026 -
Younes El Bahraoui Al-Taawoun アクティブ 119 / 113 40% 1 16.12.2026 -
Oumar Gonzalez Al-Ra'ed アクティブ 106 / 134 40% 1 15.12.2026 -
Artem Sokol Rodina アクティブ 113 / 98 40% 1 15.12.2026 -
Musa Qurbanlı Qarabag アクティブ 116 / 102 40% 1 11.12.2026 -
Leandro Lacunza Hibernians アクティブ 116 / 82 40% 1 08.12.2026 -
Shahriyar Abdullayev Ravan アクティブ 97 / 110 40% 1 07.12.2026 -
Zoumana Simpara Djoliba アクティブ 87 / 99 40% 1 02.12.2026 -
Yegor Kortsov Dinamo Brest アクティブ 116 / 97 40% 1 28.11.2026 -
David Karaev KAMAZ アクティブ 111 / 92 40% 1 26.11.2026 -
Jáder Valencia Deportes Tolima アクティブ 133 / 102 40% 1 25.11.2026 -
Rüstəm Əhmədzadə Sumgayit アクティブ 103 / 118 40% 1 25.11.2026 -
Ilja Safronov Rotor アクティブ 102 / 96 40% 1 23.11.2026 -
Liam Bennett Cambridge United アクティブ 121 / 107 40% 1 21.11.2026 -
Cavid Nazarov Khazar アクティブ 117 / 116 40% 1 19.11.2026 -
Macaulay Langstaff Millwall アクティブ 107 / 126 40% 2 18.11.2026 -
Gevorg Tarakhchyan Pyunik アクティブ 115 / 89 40% 1 24.09.2026 -
Magnus Lankhof Dahlby Stabaek アクティブ 95 / 87 40% 1 22.09.2026 -
Denzel Jubitana Neftchi アクティブ 127 / 108 40% 1 19.09.2026 -
Egor Bogomolskiy Zira アクティブ 102 / 95 40% 1 18.09.2026 -
Paul Ayongo Ararat-Armenia アクティブ 105 / 119 40% 1 16.09.2026 -
Matty Stevens AFC Wimbledon アクティブ 90 / 122 40% 1 14.09.2026 -
Steven Alfred Torpedo-BelAZ アクティブ 94 / 83 40% 1 14.09.2026 -
Mo Dauda Portimonense アクティブ 109 / 92 40% 1 13.09.2026 -
Will Swan Bradford City アクティブ 78 / 99 40% 1 08.09.2026 -
Valentin Costache Noah アクティブ 111 / 127 40% 1 08.09.2026 -
Jonel Désirè Van アクティブ 79 / 85 41% 1 31.08.2026 -
Allef Van アクティブ 82 / 98 41% 1 10.08.2026 -
Hamlet Mnatsakanyan Shirak アクティブ 92 / 88 41% 1 03.08.2026 -